When you browse on this site, cookies collect data to enhance your experience and personalize the content and advertising you see.
Visit our Privacy Policy to learn more. By continuing to use the site, you agree to this use of cookies and data.
  • In Czech Republic
  • List of Countries
  • For 7 days
  • Water Temperature
  • Weather Map
  • Weather Widgets
  • user-avatar
    Login

    Hourly Weather Slawniow

    Today, 10 December, Tuesday

    Time Temperature Precipitation Wind Pressure Humidity
    00:00 +2°C° 0 mm 3 mps 726 mmHg 84%
    01:00 +2°C° 0 mm 3 mps 727 mmHg 84%
    02:00 +1°C° 0 mm 3 mps 727 mmHg 86%
    03:00 +1°C° 0 mm 3 mps 727 mmHg 87%
    04:00 +1°C° 0 mm 3 mps 728 mmHg 89%
    05:00 0°C° 0 mm 4 mps 728 mmHg 89%
    06:00 +1°C° 0 mm 4 mps 729 mmHg 90%
    07:00 +1°C° 0 mm 4 mps 730 mmHg 92%
    08:00 +1°C° 0 mm 5 mps 731 mmHg 87%
    09:00 +1°C° 0 mm 6 mps 732 mmHg 82%
    10:00 +1°C° 0 mm 6 mps 732 mmHg 77%
    11:00 +1°C° 0 mm 6 mps 733 mmHg 72%
    12:00 +1°C° 0 mm 6 mps 734 mmHg 68%
    13:00 +1°C° 0 mm 6 mps 734 mmHg 63%
    14:00 +1°C° 0 mm 6 mps 735 mmHg 68%
    15:00 0°C° 0 mm 5 mps 735 mmHg 72%
    16:00 0°C° 0 mm 5 mps 735 mmHg 76%
    17:00 -1°C° 0 mm 4 mps 736 mmHg 78%
    18:00 -1°C° 0 mm 4 mps 736 mmHg 79%
    19:00 -1°C° 0 mm 3 mps 737 mmHg 81%
    20:00 -1°C° 0 mm 3 mps 737 mmHg 81%
    21:00 -2°C° 0 mm 2 mps 737 mmHg 81%
    22:00 -2°C° 0 mm 2 mps 737 mmHg 81%
    23:00 0°C° 0 mm 1 mps 737 mmHg 80%

    Tomorrow, 11 December, Wednesday

    Time Temperature Precipitation Wind Pressure Humidity
    00:00 0°C° 0 mm 1 mps 737 mmHg 80%
    01:00 -1°C° 0 mm 1 mps 737 mmHg 80%
    02:00 -1°C° 0 mm 1 mps 737 mmHg 79%
    03:00 -1°C° 0 mm 1 mps 736 mmHg 79%
    04:00 -2°C° 0 mm 0 mps 736 mmHg 78%
    05:00 -1°C° 0 mm 1 mps 736 mmHg 78%
    06:00 -1°C° 0 mm 1 mps 735 mmHg 78%
    07:00 -3°C° 0 mm 2 mps 735 mmHg 77%
    08:00 -3°C° 0 mm 2 mps 735 mmHg 73%
    09:00 -2°C° 0 mm 2 mps 734 mmHg 69%
    10:00 -2°C° 0 mm 3 mps 734 mmHg 65%
    11:00 -1°C° 0 mm 3 mps 733 mmHg 61%
    12:00 -1°C° 0 mm 3 mps 733 mmHg 57%
    13:00 -1°C° 0 mm 4 mps 732 mmHg 53%
    14:00 -1°C° 0 mm 3 mps 732 mmHg 59%
    15:00 -2°C° 0 mm 3 mps 731 mmHg 64%
    16:00 -3°C° 0 mm 2 mps 730 mmHg 70%
    17:00 -3°C° 0 mm 2 mps 730 mmHg 73%
    18:00 -3°C° 0 mm 2 mps 730 mmHg 76%
    19:00 -3°C° 0 mm 2 mps 729 mmHg 80%
    20:00 -3°C° 0 mm 2 mps 729 mmHg 79%
    21:00 -3°C° 0 mm 2 mps 728 mmHg 79%
    22:00 -3°C° 0 mm 2 mps 728 mmHg 78%
    23:00 -3°C° 0 mm 2 mps 728 mmHg 76%

    Day after tomorrow, 12 December, Thursday

    Time Temperature Precipitation Wind Pressure Humidity
    00:00 -1°C° 0 mm 1 mps 727 mmHg 73%
    01:00 -1°C° 0 mm 1 mps 727 mmHg 71%
    02:00 -1°C° 0 mm 1 mps 726 mmHg 70%
    03:00 -3°C° 0 mm 2 mps 726 mmHg 68%
    04:00 -3°C° 0 mm 2 mps 725 mmHg 67%
    05:00 -3°C° 0 mm 2 mps 725 mmHg 67%
    06:00 -3°C° 0 mm 2 mps 725 mmHg 66%
    07:00 -3°C° 0 mm 2 mps 725 mmHg 65%
    08:00 -2°C° 0 mm 2 mps 725 mmHg 63%
    09:00 +1°C° 0 mm 1 mps 725 mmHg 61%
    10:00 +2°C° 0 mm 1 mps 725 mmHg 58%
    11:00 +2°C° 0 mm 1 mps 724 mmHg 61%
    12:00 +3°C° 0 mm 1 mps 724 mmHg 64%
    13:00 +3°C° 0 mm 1 mps 724 mmHg 67%
    14:00 +2°C° 0 mm 1 mps 724 mmHg 72%
    15:00 +2°C° 0 mm 1 mps 723 mmHg 77%
    16:00 +1°C° 0 mm 1 mps 723 mmHg 81%
    17:00 +1°C° 0 mm 1 mps 723 mmHg 86%
    18:00 +1°C° 0 mm 1 mps 723 mmHg 90%
    19:00 +1°C° 0 mm 1 mps 723 mmHg 94%
    20:00 +1°C° 0.1 mm 1 mps 723 mmHg 95%
    21:00 -1°C° 0.1 mm 2 mps 722 mmHg 96%
    22:00 -1°C° 0.1 mm 2 mps 722 mmHg 97%
    23:00 -1°C° 0 mm 2 mps 721 mmHg 97%

    13 December, Friday

    Time Temperature Precipitation Wind Pressure Humidity
    00:00 -1°C° 0 mm 2 mps 721 mmHg 96%
    01:00 -1°C° 0 mm 2 mps 720 mmHg 96%
    02:00 -1°C° 0 mm 2 mps 720 mmHg 96%
    03:00 -1°C° 0 mm 2 mps 719 mmHg 96%
    04:00 -1°C° 0 mm 2 mps 718 mmHg 96%
    05:00 -1°C° 0 mm 3 mps 718 mmHg 96%
    06:00 -2°C° 0 mm 3 mps 718 mmHg 96%
    07:00 -2°C° 0 mm 3 mps 717 mmHg 96%
    08:00 -1°C° 0 mm 3 mps 717 mmHg 90%
    09:00 -1°C° 0 mm 4 mps 716 mmHg 84%
    10:00 -1°C° 0 mm 4 mps 716 mmHg 78%
    11:00 +1°C° 0 mm 3 mps 715 mmHg 73%
    12:00 +1°C° 0 mm 3 mps 715 mmHg 69%
    13:00 +3°C° 0 mm 2 mps 715 mmHg 64%
    14:00 +2°C° 0 mm 2 mps 715 mmHg 67%
    15:00 0°C° 0 mm 3 mps 715 mmHg 70%
    16:00 0°C° 0 mm 3 mps 714 mmHg 73%
    17:00 0°C° 0 mm 3 mps 715 mmHg 75%
    18:00 0°C° 0 mm 3 mps 715 mmHg 76%
    19:00 -1°C° 0 mm 3 mps 715 mmHg 78%
    20:00 -1°C° 0 mm 3 mps 716 mmHg 80%
    21:00 -1°C° 0 mm 3 mps 716 mmHg 82%
    22:00 -1°C° 0 mm 3 mps 716 mmHg 84%
    23:00 -1°C° 0 mm 3 mps 716 mmHg 85%

    14 December, Saturday

    Time Temperature Precipitation Wind Pressure Humidity
    00:00 -1°C° 0 mm 3 mps 717 mmHg 87%
    01:00 -1°C° 0 mm 3 mps 717 mmHg 89%
    02:00 -1°C° 0 mm 3 mps 718 mmHg 89%
    03:00 -1°C° 0 mm 3 mps 718 mmHg 90%
    04:00 -1°C° 0 mm 2 mps 719 mmHg 90%
    05:00 -1°C° 0 mm 3 mps 719 mmHg 90%
    06:00 0°C° 0 mm 3 mps 719 mmHg 90%
    07:00 0°C° 0 mm 3 mps 720 mmHg 90%
    08:00 +1°C° 0 mm 3 mps 720 mmHg 86%
    09:00 +1°C° 0 mm 3 mps 721 mmHg 83%
    10:00 +2°C° 0 mm 3 mps 721 mmHg 80%
    11:00 +1°C° 0 mm 4 mps 721 mmHg 77%
    12:00 +2°C° 0 mm 5 mps 721 mmHg 74%
    13:00 +3°C° 0 mm 5 mps 721 mmHg 72%
    14:00 +2°C° 0 mm 5 mps 721 mmHg 75%
    15:00 +1°C° 0 mm 5 mps 721 mmHg 78%
    16:00 +1°C° 0 mm 5 mps 721 mmHg 81%
    17:00 +1°C° 0 mm 6 mps 722 mmHg 82%
    18:00 +1°C° 0 mm 6 mps 722 mmHg 83%
    19:00 0°C° 0 mm 7 mps 722 mmHg 84%
    20:00 0°C° 0 mm 7 mps 723 mmHg 83%
    21:00 +1°C° 0 mm 6 mps 723 mmHg 82%
    22:00 +2°C° 0 mm 6 mps 724 mmHg 81%
    23:00 +2°C° 0.2 mm 6 mps 724 mmHg 84%

    15 December, Sunday

    Time Temperature Precipitation Wind Pressure Humidity
    00:00 +2°C° 0.2 mm 6 mps 725 mmHg 87%
    01:00 +2°C° 0.2 mm 6 mps 725 mmHg 90%
    02:00 +2°C° 0.1 mm 6 mps 725 mmHg 87%
    03:00 +2°C° 0.1 mm 6 mps 726 mmHg 84%
    04:00 +2°C° 0.1 mm 7 mps 726 mmHg 81%
    05:00 +3°C° 0 mm 6 mps 727 mmHg 81%
    06:00 +3°C° 0 mm 6 mps 727 mmHg 81%
    07:00 +3°C° 0 mm 6 mps 728 mmHg 81%
    08:00 +3°C° 0 mm 6 mps 728 mmHg 80%
    09:00 +4°C° 0 mm 6 mps 729 mmHg 78%
    10:00 +4°C° 0 mm 6 mps 729 mmHg 76%
    11:00 +5°C° 0.2 mm 5 mps 729 mmHg 78%
    12:00 +5°C° 0.2 mm 4 mps 728 mmHg 79%
    13:00 +5°C° 0.2 mm 3 mps 728 mmHg 81%
    14:00 +5°C° 0.1 mm 4 mps 728 mmHg 75%
    15:00 +5°C° 0.1 mm 4 mps 728 mmHg 69%
    16:00 +5°C° 0.1 mm 5 mps 728 mmHg 63%
    17:00 +5°C° 0 mm 5 mps 728 mmHg 64%
    18:00 +5°C° 0 mm 5 mps 729 mmHg 64%
    19:00 +5°C° 0 mm 5 mps 729 mmHg 65%
    20:00 +5°C° 0 mm 5 mps 729 mmHg 67%
    21:00 +3°C° 0 mm 5 mps 730 mmHg 69%
    22:00 +3°C° 0 mm 5 mps 730 mmHg 71%
    23:00 +3°C° 0 mm 5 mps 731 mmHg 73%
    Show more